Showing default

JIAOTONG VDES, 54588

Orbit data source: Space-Track

JIAOTONG VDES, 54588 is a payload satellite owned by Xingyun (CN) in SSO that was launched on Wed, 07 Dec 2022 UTC via a KUAIZHOU-11 launch vehicle from the Jiuquan Satellite Launch Center, China (JSC). Payload-class satellites include a variety of spacecraft equipped with specific instruments for various scientific and technological missions. These include communications satellites like Starlink; space stations such as the ISS; scientific satellites like the Hubble; Earth observation satellites from companies like Planet Labs, Umbra, and HawkEye 360; GPS; miniature CubeSats for education and research; and military/defense satellites.

Loading next visibility...
Identifier
54588, 2022-164A
Orbit
SSO
Country
Flag of CNCN / PRC
Related business
Manufacturer
Sanjiang
Mission
Operational Commercial Communications
Bus & Motor
XINGYUN, Unknown motor
Mass
~500 kg wet, ~500 kg dry
Launch date (UTC)
2022-12-07 (4 years ago)
Launch vehicle
KUAIZHOU-11
Launch site
Jiuquan Satellite Launch Center, China (JSC)
Object type
Payload
Rocket body
Debris
Shape & HBR
Box + 2 Pan, 2.0 m
Radar Cross Section
2.815 m², Medium (>0.1 m² and < 1m²)

Expand to show TLE details & history
Last TLE update: 22 hours ago

TLE from 22 hours ago
0 JIAOTONG VDES
1 54588U 22164A   26172.51894867  .00000218  00000-0  73127-4 0  9996
2 54588  98.2422 191.5767 0008897 320.8868  39.1681 14.46072914186700
Epoch: 2026-06-21T12:27Z
TLE epoch observation values (Epoch: 2026-06-21T12:27:17.165Z)
Latitude
0.00007°
Longitude
95.03711°
Altitude
736.561 km
Speed
7.489 km/s
True Right ascension
12h 46m 18s
True Declination
0° 00' 00"
Sunlit
Object was in daylight at epoch
Visualization orbit readout
Latitude
Unknown
Longitude
Unknown
Altitude
Unknown
Speed
Unknown
Apparent Right ascension
Unknown
Apparent Declination
Unknown
Sunlit
N/A
Visualization observer readout
Local Sidereal Time
21:25:27
Azimuth
Unknown
Elevation
Unknown
Doppler factor
Unknown
Orbital elements
Apogee altitude
741.935 km
Perigee altitude
729.276 km
Semi-major axis
7,113.743 km
Eccentricity
0.00089
Inclination
98.2422°
RAAN
191.5767°
Arg. of periapsis
320.8868°
True anomaly
39.23255°
Mean anomaly
39.1681°
Eccentric anomaly
39.20032°
Mean motion
3.6174 °/min
Orbital period
99.52 mins
BSTAR
0.000073127
Loading maneuver chart data...
Computing Atmospheric mass density...
Loading historical data...
Loading historical data...
Loading historical data...
Loading historical data...
Loading historical data...
Loading historical data...
Loading historical data...
Other satellites on launch #164 in the year 2022 (2022-12-07 UTC)

Documentation

Showing up to 5 results
|